Location: Santa Barbara
(34.4500°N, 119.7700°W)
Time: 09:59:24
(UTC-08:00)

Envisat - Pass Details

Date: 25 October 2019
Orbit: 764 x 766 km, 98.1° (Epoch: 19 November)

Event Time Altitude Azimuth Distance (km) Brightness Sun altitude
Rises 19:01:20 0° 163° (SSE) 3,217 6.1 -10.6°
Reaches altitude 10° 19:03:37 10° 162° (SSE) 2,294 5.4 -11.1°
Maximum altitude 19:08:41 80° 76° (ENE) 780 2.9 -12.1°
Drops below altitude 10° 19:13:46 10° 350° (N) 2,308 5.5 -13.2°
Sets 19:16:04 0° 350° (N) 3,237 6.3 -13.6°
